Other Public Products
Issued by NWS Grand Forks, ND

Home | Current Version | Previous Version | Graphics & Text | Print | Product List | Glossary On
Versions: 1 2 3 4 5 6 7 8 9 10 11 12 13 14 15 16 17 18 19 20 21 22 23 24 25 26 27 28 29 30 31 32 33 34 35 36 37 38 39 40 41 42 43 44 45 46 47 48 49 50
000
FPUS83 KFGF 261131
OPUFGF
PRAIRIE TO PINES WEATHER ROUNDUP
NATIONAL WEATHER SERVICE EASTERN NORTH DAKOTA/GRAND FORKS ND
600 AM CDT SAT JUL 26 2014

 **SATELLITE DATA USED TO AUGMENT SKY COVER AT AUTOMATED STATIONS**
 *****  WEATHER ACROSS EASTERN NORTH DAKOTA  *****

CITY           SKY/WX    TMP DP  RH WIND       PRES   REMARKS
GRAND FORKS    CLEAR     58  54  86 S7        29.73F
GRAND FORKS AF CLEAR     58  56  93 SW7       29.74S
GRAND CITY NWS   N/A     57 N/A N/A S2          N/A
BUXTON           N/A     59  57  94 S5          N/A
DEVILS LAKE    CLEAR     64  55  72 SW13      29.74S
FARGO          CLEAR     58  54  86 E3        29.78F
WAHPETON ARPT  SUNNY     54  52  94 SE3       29.79S
$$

 *****  WEATHER ACROSS CENTRAL AND WESTERN NORTH DAKOTA  *****

CITY           SKY/WX    TMP DP  RH WIND       PRES   REMARKS
JAMESTOWN      CLEAR     59  55  87 SW6       29.80R
BISMARCK       CLEAR     60  51  72 SW3       29.85R
MINOT          CLEAR     60  49  66 SW16      29.78S
MINOT AFB      CLEAR     57  53  86 W16       29.76S
GARRISON         N/A     53  51  93 SW6       29.83R
WILLISTON      CLEAR     57  49  74 W16G25    29.86R
DICKINSON      CLEAR     54  46  74 W12       29.90S
HETTINGER      CLEAR     56  44  64 NW14      29.94R
$$

 *****  OTHER OBSERVATIONS NORTHEAST NORTH DAKOTA  *****

CITY           SKY/WX    TMP DP  RH WIND       PRES   REMARKS
WALHALLA         N/A     66  52  59 SW13G26     N/A
LANGDON        FAIR      55  52  88 SW9       29.73S
CAVALIER       FAIR      63  52  67 SW8       29.70F
GRAFTON        FAIR      54  54 100 S5        29.72S
CANDO          FAIR      55  55 100 SW9       29.75S
FORT TOTTEN    NOT AVBL
ROLLA          FAIR      55  55 100 SW10      29.74F
RUGBY          FAIR      55  54  94 W9        29.76S
 ***** THE ABOVE OBSERVATIONS ARE NON NWS ARE NOT QUALITY
        CONTROLLED AND MAY MIS-REPORT RAIN FOR SNOW...
$$

 *****  OTHER OBSERVATIONS SOUTHEAST NORTH DAKOTA *****

CITY           SKY/WX    TMP DP  RH WIND       PRES   REMARKS
COOPERSTOWN    NOT AVBL
VALLEY CITY    FAIR      54  54 100 S9        29.79F
OAKES          NOT AVBL
GWINNER        SUNNY     57  57 100 S3        29.80F
BUFFALO        NOT AVBL
WYNDMERE       NOT AVBL
 ***** THE ABOVE OBSERVATIONS ARE NON NWS ARE NOT QUALITY
       CONTROLLED AND MAY MIS-REPORT RAIN FOR SNOW...
$$

  *****  WEATHER ACROSS NORTHERN MINNESOTA  *****

CITY           SKY/WX    TMP DP  RH WIND       PRES   REMARKS
FLAG ISLAND    CLEAR     63  55  77 NW7       29.73R
WARROAD        CLEAR     55  52  88 CALM      29.75S
ROSEAU         CLEAR     54  48  82 CALM      29.75S
HALLOCK        CLEAR     55  54  94 S7        29.72S
THF RVR FALLS  CLEAR     57  54  88 S7        29.77S
HALSTAD          N/A     56  54  91 S6          N/A
FOSSTON        CLEAR     52  52 100 S7        29.80R
BAUDETTE       CLEAR     55  52  89 CALM      29.76S
WASKISH        CLEAR     61  55  82 CALM      29.77S
CROOKSTON      CLEAR     55  55 100 S8        29.76F
$$
  *****  WEATHER ACROSS CENTRAL AND WEST MINNESOTA  *****

CITY           SKY/WX    TMP DP  RH WIND       PRES   REMARKS
BEMIDJI        CLEAR     53  51  93 CALM      29.79F
PARK RAPIDS    CLEAR     57  53  86 CALM      29.81S
WADENA         CLEAR     55  54  94 CALM      29.82F
DETROIT LAKES  CLEAR     61  55  82 SW3       29.83S
MOORHEAD       CLEAR     57  57 100 SE7       29.78F
FERGUS FALLS   CLEAR     61  55  82 E6        29.80F
ELBOW LAKE     FAIR      61  59  92 E5        29.79F
MORRIS MN      PTCLDY    57  57 100 NE3       29.81R
STAPLES        CLEAR     57  55  94 CALM      29.83S
WHEATON        CLOUDY    55  55 100 CALM      29.82S VSB 1/2
$$
  *****  WEATHER ELSEWHERE ACROSS MINNESOTA  *****

CITY           SKY/WX    TMP DP  RH WIND       PRES   REMARKS
DULUTH         CLEAR     65  62  90 W7        29.77S
INTRNTL FALLS  CLEAR     56  54  93 W5        29.75R
ELY            CLEAR     61  59  94 W5        29.75S
CLOQUET        CLEAR     64  61  88 W7        29.79R
BRAINERD       CLEAR     56  56 100 CALM      29.84R FOG
HIBBING        CLEAR     54  52  93 CALM      29.78R
ALEXANDRIA     CLEAR     60  59  96 N6        29.83F
SAINT CLOUD    CLEAR     63  61  94 NW5       29.82S FOG
MINNEAPOLIS    MOCLDY    72  69  90 CALM      29.80R
$$

  *****  WEATHER ACROSS SOUTH DAKOTA  *****

CITY           SKY/WX    TMP DP  RH WIND       PRES   REMARKS
SIOUX FALLS    CLOUDY    71  68  90 N8        29.88R
BROOKINGS      NOT AVBL
WATERTOWN      LGT RAIN  66  64  93 SE8       29.77F
HURON          CLOUDY    69  66  90 SE8       29.79F
SISSETON         N/A     57  57 100 CALM      29.79S
ABERDEEN       MOCLDY    57  57 100 CALM      29.80S FOG
MITCHELL       MOCLDY    70  67  90 SE9       29.83S
PIERRE         CLOUDY    69  67  93 SE7       29.82S
MOBRIDGE       MOCLDY    66  65  96 NW10      29.84R
RAPID CITY     CLEAR     62  52  69 N8        29.93R
$$

  *****  SOME WEATHER IN NEARBY STATES *****

CITY           SKY/WX    TMP DP  RH WIND       PRES   REMARKS
GLASGOW MT     MOCLDY    56  49  77 W14       29.95R
GREAT FALLS MT CLEAR     49  39  68 SE3       30.10R
CHEYENNE WY    CLEAR     68  45  43 NW13G23   30.15R
SCOTTSBLUFF NE PTCLDY    64  53  67 NW13      29.99R
OMAHA NE       CLOUDY    72  69  90 NE6       29.79F
DES MOINES IA  CLOUDY    71  68  90 N3        29.83R
DAVENPORT IA   CLOUDY    66  62  87 NE6       29.84R
CHICAGO IL     CLOUDY    69  58  67 SW3       29.85S
EAU CLAIRE WI  CLOUDY    69  68  96 SW5       29.80S
LA CROSSE WI   NOT AVBL
$$

  *****  SOME NATIONAL WEATHER *****

CITY           SKY/WX    TMP DP  RH WIND       PRES   REMARKS
LA GUARDIA NY  PTSUNNY   73  56  54 SW6       29.99F
RALEIGH NC     FOG       72  70  93 CALM      30.03R VSB 1/4
ATLANTA GA     PTCLDY    71  66  84 CALM      30.04R
NEW ORLEANS LA PTCLDY    78  74  87 W3        30.04R
OKLAHOMA CITY  PTCLDY    74  66  76 S9        29.93S
ALBUQUERQUE NM PTCLDY    74  42  31 SE3       30.14R
SALT LAKE CITY PTCLDY    70  44  39 W3        30.05R
LOS ANGELES CA CLOUDY    66  64  94 CALM      29.91S FOG
BOISE ID       CLEAR     59  33  37 SE5       30.07R
SEATTLE WA     CLEAR     59  52  77 N5        30.14R
$$

*** WEATHER ACROSS MANITOBA...SASKATCHEWAN AND ONTARIO ***
                ***ONTARIO***

CITY           SKY/WX    TMP DP  RH WIND       PRES   REMARKS
GERALDTON      FOG      N/A N/A N/A S2          N/A  VSB 3/4
THUNDER BAY      N/A     57  57 100 NE3       29.70S FOG
SIOUX LOOKOUT  PTCLDY    63  61  94 W5        29.68S
TORONTO        MOCLDY    64  55  72 W3        29.93S
BIG TROUT LK   CLOUDY    50  45  81 NE7       29.86R
PICKLE LAKE    CLOUDY    55  52  88 E9        29.74
DRYDEN         CLEAR     59  57  94 SW8       29.70R
KENORA         PTCLDY    59  55  88 W8        29.74R
$$
                *** MANITOBA***

CITY           SKY/WX    TMP DP  RH WIND       PRES   REMARKS
BRANDON        MOCLDY    59  57  94 SW9       29.67F
DAUPHIN        CLEAR     59  54  82 W7        29.62R
ISLAND LAKE    CLOUDY    57  52  82 E10       29.81
PILOT MOUND      N/A     55  54  94 S9          N/A
THE PAS        LGT RAIN  59  57  94 E12       29.71R
THOMPSON       LGT RAIN  52  50  93 E12       29.90
WINNIPEG       PTCLDY    61  52  72 SW6       29.69S
LYNN LAKE      CLOUDY    54  48  82 E10       29.94R
CHURCHILL      FOG       45  45 100 NE6       30.08S VSB 1/8
GILLAM         DRIZZLE   45  45 100 E7G17     29.97R FOG
$$
                ***SASKATCHEWAN***

CITY           SKY/WX    TMP DP  RH WIND       PRES   REMARKS
ESTEVAN        CLOUDY    59  52  77 W14G21    29.76R
KINDERSLEY     CLOUDY    57  54  88 W13G20    29.89R
LLOYDMINSTER   CLOUDY    59  57  94 NW12G17   29.88R
PRINCE ALBERT  MOCLDY    55  55 100 CALM      29.74R
REGINA         LGT RAIN  55  54  94 W26G33    29.69R FOG
YORKTON        MOCLDY    55  54  94 NW5       29.60S


USA.gov is the U.S. government's official web portal to all federal, state and local government web resources and services.